This is the latest recevied weather packets stored in our database for station/object KF7SOJ. If no packets are shown the sender has not sent any weather packets the latest 10 day(s).
| Time | Temp. | Humidity | Pressure | Rain* | Wind** | Luminosity | Snow |
|---|---|---|---|---|---|---|---|
| 1777764655 | 20.56° C | 33% | 931.3 hPa | 0 mm | - | 276 W/m² | - |
| 1777764351 | 21.11° C | 30% | 931.6 hPa | 0 mm | - | 252 W/m² | - |
| 1777764048 | 21.11° C | 31% | 931.3 hPa | 0 mm | - | 448 W/m² | - |
| 1777763745 | 21.67° C | 31% | 931.4 hPa | 0 mm | - | 319 W/m² | - |
| 1777762232 | 20.56° C | 33% | 931.7 hPa | 0 mm | - | 473 W/m² | - |
| 1777761928 | 20.56° C | 32% | 931.5 hPa | 0 mm | - | 380 W/m² | - |
| 1777761323 | 21.11° C | 31% | 931.7 hPa | 0 mm | - | 648 W/m² | - |
| 1777761021 | 20.56° C | 32% | 931.9 hPa | 0 mm | - | 537 W/m² | - |
| 1777760718 | 20.56° C | 31% | 932 hPa | 0 mm | - | 471 W/m² | - |
| 1777760414 | 20.56° C | 33% | 931.6 hPa | 0 mm | - | 444 W/m² | - |
| 1777760110 | 21.11° C | 31% | 931.9 hPa | 0 mm | - | 522 W/m² | - |
| 1777759808 | 20.56° C | 32% | 931.9 hPa | 0 mm | - | 541 W/m² | - |
| 1777758897 | 21.11° C | 32% | 932.2 hPa | 0 mm | - | 574 W/m² | - |
| 1777758594 | 20.56° C | 32% | 932 hPa | 0 mm | - | 723 W/m² | - |
| 1777757684 | 20.56° C | 32% | 932.3 hPa | 0 mm | - | 631 W/m² | - |
| 1777757383 | 20.56° C | 33% | 932.2 hPa | 0 mm | - | 479 W/m² | - |
| 1777757081 | 20.56° C | 32% | 932.4 hPa | 0 mm | - | 528 W/m² | - |
| 1777756778 | 20.56° C | 31% | 932.4 hPa | 0 mm | - | 608 W/m² | - |
| 1777756172 | 21.11° C | 30% | 932.5 hPa | 0 mm | - | 853 W/m² | - |
| 1777755868 | 21.11° C | 33% | 932.7 hPa | 0 mm | - | 731 W/m² | - |
| 1777755565 | 20.56° C | 31% | 932.8 hPa | 0 mm | - | 869 W/m² | - |
| 1777755261 | 21.11° C | 31% | 932.6 hPa | 0 mm | - | 610 W/m² | - |
| 1777754959 | 21.11° C | 32% | 932.7 hPa | 0 mm | - | 698 W/m² | - |
| 1777753746 | 21.67° C | 28% | 932.8 hPa | 0 mm | - | 722 W/m² | - |
| 1777753444 | 21.67° C | 28% | 932.8 hPa | 0 mm | - | 973 W/m² | - |
* Rain latest hour (hover to see other rain measurements)
** Current wind speed in m/s (hover to see current wind gust speed)